Temp
18 20 20 19 18 18 20 23 26 27 26 23 24 23 21 21 23 22 21 21 21 20 19 19 20 20 20 19 19 19 19 19 19 18 18 19 19 19 18 18 18 18 18 18 18 18 18 18 18
19 20 20 16 18 18 20 23 26 27 24 22 23 22 22 22 21 19 19 19 21 20 19 19 20 20 19 19 19 19 19 18 18 19 19 19 18 18 18 18 18 17 17 17 18 18 18 18 18
19 19 17 17 17 18 21 24 26 26 24 25 23 22 22 22 20 21 21 19 20 20 20 19 19 19 19 19 19 19 18 19 19 19 19 19 19 18 18 18 18 18 18 18 17 18 18 18 18
18 17 16 17 17 20 21 22 23 24 25 22 22 21 22 22 23 22 20 21 20 20 20 19 19 19 19 19 19 18 18 19 19 19 19 19 19 19 19 18 18 18 18 18 18 18 17 17 18
17 14 17 16 18 21 20 22 23 24 25 22 22 20 21 21 23 21 20 21 21 19 19 19 19 19 19 19 19 18 18 19 19 19 19 19 18 18 18 18 17 17 17 17 16 16 16 16 17
14 14 15 17 18 21 20 21 24 25 23 21 20 20 20 21 20 20 21 21 21 20 19 19 19 19 19 19 19 19 19 19 19 19 18 18 18 17 17 17 17 16 16 16 16 15 15 15 15
14 13 15 16 19 21 21 23 23 24 23 22 21 19 20 21 20 22 22 22 21 21 20 19 19 19 19 19 19 19 19 19 18 18 17 17 17 17 17 17 16 16 16 15 14 15 15 15 15
14 14 17 17 19 21 22 24 25 23 23 22 21 19 20 21 20 22 22 21 21 20 20 19 19 19 19 19 19 19 18 18 18 17 17 17 17 16 16 16 16 15 15 15 14 14 15 15 15
17 14 15 17 19 22 21 23 23 21 21 18 18 20 21 20 21 21 20 20 19 19 19 19 19 19 19 19 19 18 18 17 17 17 17 17 17 16 16 16 15 15 15 15 14 14 14 15 15
14 13 16 18 20 21 20 23 23 21 20 18 19 19 19 19 20 18 18 18 18 18 19 19 19 19 19 19 19 18 18 17 17 17 17 17 16 16 16 16 15 15 14 14 14 14 14 14 14
15 14 17 18 20 20 21 21 23 21 22 19 20 19 18 19 18 18 18 19 19 19 19 19 19 19 19 19 18 18 18 17 17 17 17 17 17 16 16 15 15 14 14 14 14 13 13 13 14
16 17 18 18 19 19 21 20 22 21 22 20 19 20 18 18 18 18 18 18 18 19 19 19 19 19 19 19 18 18 18 17 17 17 17 17 16 16 16 15 14 14 13 13 13 13 13 13 13
15 17 18 17 18 18 18 21 22 21 19 18 19 18 18 17 18 18 19 19 19 18 18 18 18 19 19 18 18 18 17 17 17 17 16 16 16 16 15 15 14 14 14 13 13 13 13 13 13
14 16 17 18 18 19 19 20 22 20 17 17 18 19 18 17 18 18 19 18 19 19 18 18 18 18 18 18 18 18 17 17 16 16 16 16 16 15 15 15 14 14 13 13 12 12 12 13 12
15 16 16 17 18 19 20 19 21 18 18 18 18 18 19 19 19 19 18 19 19 19 19 18 18 18 18 18 17 17 17 16 16 16 16 16 15 15 15 14 14 13 13 13 12 12 12 12 12
16 16 15 18 19 20 19 19 20 18 18 17 17 17 18 18 18 19 19 19 19 19 19 18 18 18 18 17 17 17 17 16 16 16 15 15 15 15 15 14 14 13 13 12 12 12 12 12 12
16 13 15 18 19 19 19 19 20 18 18 17 17 17 17 17 17 19 19 20 19 19 19 18 18 18 17 17 17 16 16 16 16 15 15 15 15 15 14 14 13 13 13 12 12 12 11 11 11
13 14 16 17 19 19 18 19 18 18 18 18 17 17 17 16 17 19 19 20 20 19 19 19 18 17 17 16 16 16 16 16 16 15 15 15 15 14 14 14 13 13 12 12 12 11 11 11 11
16 16 17 17 19 18 18 18 18 17 18 17 16 16 16 16 18 19 20 19 19 19 19 18 18 17 16 16 15 15 16 16 16 15 15 15 14 14 14 14 13 12 12 12 11 11 11 11 10
17 16 17 18 18 18 17 18 18 19 18 16 16 16 16 16 16 17 18 19 19 19 18 18 17 17 17 16 16 15 15 15 15 15 15 15 15 14 14 13 13 13 12 12 12 11 10 10 10
15 16 15 18 18 17 17 17 19 19 19 17 16 16 16 15 15 15 17 18 18 18 18 17 17 17 16 16 15 15 15 15 15 15 15 15 14 14 14 13 13 13 12 12 12 11 10 10 10
17 16 17 17 17 14 17 13 16 17 18 17 15 14 14 14 14 15 16 17 17 17 17 17 17 16 16 15 15 15 15 14 14 14 14 14 14 14 14 13 13 13 13 12 12 11 10 10 10
16 15 16 17 15 15 16 12 15 16 16 16 14 13 13 13 13 14 14 15 15 15 16 16 16 16 15 15 15 15 14 14 14 14 14 14 14 14 14 14 13 13 13 12 12 11 11 10 10
15 16 15 13 13 12 16 13 14 14 16 16 16 13 13 12 13 13 14 14 14 14 15 15 15 15 15 14 14 14 14 14 13 14 14 14 14 14 13 13 13 12 12 12 12 11 11 10 10
14 14 12 12 11 13 13 12 14 16 17 16 15 13 12 12 12 11 12 13 13 14 14 14 14 14 14 14 14 14 14 13 13 13 13 13 13 13 13 12 12 12 12 12 11 11 11 10 10
15 15 11 15 13 12 14 14 13 15 14 13 13 12 12 12 12 12 12 13 13 13 14 14 14 14 14 14 14 13 13 13 13 13 12 12 12 12 12 12 12 11 11 11 11 11 11 10 10
16 12 14 11 10 9 10 15 16 14 15 13 13 13 13 13 12 13 13 13 13 13 14 14 14 14 14 13 13 13 13 13 13 12 12 12 11 11 11 11 11 11 10 10 10 10 10 10 10
15 14 14 9 15 16 12 16 10 11 15 15 15 14 14 14 13 11 12 13 13 13 14 14 13 13 13 13 13 13 13 12 12 12 12 11 11 11 11 10 10 10 10 10 10 10 10 10 10
14 14 13 13 12 14 14 12 13 14 14 15 14 14 13 13 12 11 12 13 14 13 13 13 13 13 13 13 12 12 12 12 11 11 11 10 10 10 10 9 9 9 9 9 9 9 9 9 9
13 15 14 12 15 12 12 11 14 14 14 15 15 14 14 13 11 11 12 13 13 13 13 13 13 13 12 12 12 12 11 11 11 11 10 10 10 9 9 9 9 8 8 8 8 8 8 8 8
Height
806 806 807 807 833 836 834 816 791 792 793 786 782 788 803 805 809 827 811 814 817 821 825 827 828 830 831 832 833 834 835 835 835 834 834 833 832 831 830 829 828 827 826 825 824 824 823 822 821
806 806 807 813 836 846 833 804 797 788 788 786 786 794 801 813 804 809 814 817 817 821 825 827 828 830 831 833 834 835 835 835 835 835 834 833 833 832 830 829 828 827 826 825 824 822 821 820 819
805 806 811 820 833 836 826 797 792 785 783 782 793 795 801 809 806 809 811 816 818 822 826 828 829 831 832 834 835 835 835 835 836 835 835 834 833 832 830 829 827 826 825 824 823 822 820 819 818
805 808 812 824 827 813 808 798 792 788 783 783 789 807 803 804 805 806 811 816 820 823 827 829 830 831 833 834 835 836 836 835 835 835 835 834 833 832 830 829 828 826 825 824 822 821 819 818 816
805 809 820 823 818 803 798 790 789 791 785 790 787 810 810 807 804 808 812 816 820 824 827 829 831 833 834 834 835 836 836 836 835 835 834 834 832 831 830 828 827 826 824 822 821 819 818 817 814
810 810 820 820 812 799 795 787 786 788 788 793 797 805 811 810 809 812 814 817 820 824 827 829 831 833 834 835 836 836 837 836 835 835 834 833 832 831 829 828 826 825 823 821 819 818 817 815 813
808 815 814 812 809 801 792 782 787 787 789 793 790 810 809 810 811 812 816 819 822 824 827 830 831 833 834 835 836 836 837 836 836 835 834 833 832 831 829 827 826 824 822 820 819 818 816 814 812
806 809 807 804 803 800 784 781 778 787 788 785 788 809 811 806 809 812 816 820 823 826 828 830 831 833 834 835 836 836 837 837 836 835 834 833 832 830 829 828 826 824 822 820 818 817 815 813 811
798 813 814 804 799 791 783 786 782 783 789 793 793 795 796 803 808 812 816 821 824 827 829 830 831 832 834 834 834 835 836 836 835 834 834 832 832 831 829 828 826 824 822 820 818 816 814 811 809
804 813 807 794 788 787 786 783 784 791 795 798 795 797 799 803 808 811 815 819 823 826 829 831 831 832 833 834 834 835 835 835 835 834 834 832 831 831 829 828 826 823 822 820 817 815 813 810 808
801 808 798 790 788 786 788 787 780 789 794 793 794 797 801 804 809 812 816 818 821 825 828 831 832 832 833 834 833 834 834 835 834 834 833 832 831 831 829 828 825 824 822 819 817 814 812 809 807
801 796 794 788 790 789 788 787 784 787 786 784 789 793 800 805 809 812 816 819 821 824 826 830 832 832 833 833 833 833 834 834 834 833 833 832 831 831 829 828 826 824 822 819 817 814 812 809 806
800 795 793 789 793 792 786 787 786 790 785 785 793 797 802 807 811 814 816 821 822 824 826 828 830 831 832 833 833 833 834 833 833 833 832 831 831 830 829 828 827 824 822 819 816 814 811 808 805
801 798 795 790 791 790 790 786 783 791 790 791 795 799 803 806 809 814 817 818 821 823 825 827 829 831 831 833 833 833 833 833 834 833 832 832 831 831 829 828 826 824 821 819 817 814 811 807 804
799 802 799 795 790 789 784 796 787 785 790 793 798 800 803 806 810 812 816 818 820 822 824 826 828 830 831 832 833 833 833 833 833 833 832 832 831 831 829 827 825 823 821 819 817 814 811 807 803
802 801 811 793 786 784 787 804 789 788 790 797 797 802 804 806 809 812 815 818 819 821 823 825 827 828 830 831 832 832 832 832 832 832 832 832 831 830 829 827 826 823 821 819 817 814 810 807 802
802 815 809 796 784 786 790 798 789 789 791 797 799 800 804 805 809 810 813 816 818 820 822 824 825 827 828 830 831 831 832 831 831 832 831 831 831 830 829 827 825 824 822 820 818 815 812 807 801
809 808 801 802 789 785 793 795 793 793 794 796 799 801 805 804 806 808 812 815 817 819 821 822 824 826 828 829 829 830 830 830 831 830 830 830 830 829 828 826 825 823 821 820 818 816 813 810 804
796 799 798 794 785 791 795 799 798 796 797 800 799 796 801 805 805 809 812 814 816 817 818 820 822 824 826 828 829 829 829 830 830 829 829 830 829 828 827 825 824 822 820 818 817 816 813 810 805
793 796 797 791 787 790 799 802 800 797 796 797 798 801 805 806 807 810 812 813 815 815 817 820 822 823 825 827 828 829 829 829 829 829 829 828 828 827 825 824 822 821 819 817 816 816 814 811 808
796 797 801 794 791 797 802 813 805 798 796 799 800 801 802 803 808 811 811 812 813 814 816 819 820 822 825 827 828 828 828 828 828 828 827 827 826 825 824 822 821 820 818 816 815 813 814 813 809
793 793 792 798 801 826 807 844 818 808 805 804 806 805 804 806 808 809 810 811 812 814 816 817 819 821 823 825 826 827 827 826 826 827 826 826 825 824 822 820 819 818 816 815 814 812 812 812 810
796 793 793 796 811 815 814 837 817 811 811 808 809 807 806 805 806 809 810 812 814 815 816 816 818 820 822 824 825 826 826 826 825 825 825 824 823 821 820 818 816 815 814 813 812 810 810 810 809
795 795 800 810 817 844 816 832 821 817 802 800 803 805 805 806 807 810 811 813 814 815 816 817 818 820 822 824 825 826 826 826 825 823 822 821 820 819 818 817 815 814 813 811 810 808 807 807 806
803 807 838 842 854 843 828 838 814 800 796 797 798 804 807 808 810 812 813 813 814 815 816 817 819 821 823 824 825 825 825 824 824 823 822 821 820 818 816 814 813 811 810 808 807 805 804 804 803
803 805 836 831 842 845 827 832 818 804 803 799 799 804 807 811 812 812 811 812 815 817 818 819 820 821 822 823 823 823 824 825 824 824 823 821 819 817 814 813 811 810 808 805 803 801 801 799 799
795 819 810 832 845 860 846 813 807 806 804 803 804 806 808 809 810 810 811 814 816 818 818 818 818 819 821 823 823 824 824 823 823 822 821 819 817 814 812 810 808 806 804 802 800 798 797 796 795
799 805 815 839 829 826 837 813 844 824 805 803 804 806 807 808 809 811 812 813 816 817 818 819 819 820 821 822 822 823 822 821 820 819 818 816 814 811 811 809 806 803 800 798 796 794 793 790 789
807 808 811 820 829 827 829 833 815 811 805 804 804 804 804 806 808 811 813 815 816 817 818 819 820 820 821 822 823 823 823 822 820 819 817 814 812 811 810 807 804 800 798 795 793 790 789 788 785
806 802 811 830 815 828 828 840 809 807 803 801 801 802 803 805 808 811 813 815 817 818 819 819 820 821 823 823 822 822 821 819 817 816 815 813 811 810 807 804 800 797 795 792 791 788 786 785 783
Wind_Speed
11 9 7 3 3 4 3 6 3 5 3 6 4 12 9 5 2 4 13 15 26 24 20 17 16 14 12 11 10 9 8 7 7 7 7 7 8 8 7 7 7 7 7 6 5 6 7 8 9
9 6 0 2 5 4 5 5 4 2 8 9 9 5 6 4 3 11 14 26 26 25 21 18 16 14 12 10 9 8 7 6 5 5 5 6 6 6 6 6 6 7 7 7 6 7 8 8 8
4 4 3 4 4 6 5 3 4 3 7 2 6 6 4 3 6 14 21 27 26 23 20 17 16 14 12 10 7 6 6 4 4 5 5 6 6 6 7 7 7 7 7 8 8 9 9 10 11
6 2 2 4 6 6 8 5 3 6 3 6 10 8 4 7 6 14 30 28 26 22 19 17 14 13 12 9 8 6 4 4 4 5 6 6 7 7 8 8 9 9 10 10 10 11 11 12 13
3 2 3 4 6 4 5 4 1 3 3 4 5 5 3 5 22 33 30 29 26 23 20 17 14 12 11 9 6 3 3 3 4 5 6 6 7 8 9 10 12 11 13 13 12 13 13 14 14
2 2 4 7 6 6 5 7 1 2 2 5 7 6 3 14 26 29 26 27 24 23 20 17 14 12 10 7 5 3 3 3 4 5 7 7 7 8 9 13 12 13 13 13 12 12 13 14 14
4 3 4 7 8 6 6 4 5 5 7 3 9 5 4 9 24 28 25 23 23 21 17 16 14 11 9 7 5 3 3 4 5 6 7 7 6 8 10 12 12 12 14 13 13 13 13 14 15
3 3 4 5 12 8 5 3 0 6 3 7 4 7 8 12 25 25 23 22 21 19 17 15 13 11 9 7 5 5 4 4 5 6 6 6 7 6 9 9 10 11 13 12 12 14 13 13 14
2 2 3 7 9 5 3 5 2 4 5 4 3 4 14 27 27 29 28 24 22 19 16 16 14 11 9 6 6 4 3 2 3 5 6 5 6 7 8 9 10 11 12 13 13 14 14 13 13
3 3 5 4 1 4 4 5 7 5 2 4 6 9 25 27 27 23 21 20 24 20 16 14 13 11 7 5 4 3 3 2 3 6 6 5 6 7 8 9 10 12 12 13 14 14 13 13 14
5 4 3 4 3 6 4 4 3 9 2 5 12 18 18 21 19 22 21 27 26 21 18 14 12 10 7 5 4 3 1 2 4 6 6 6 6 7 9 11 12 12 14 17 16 15 16 17 16
3 7 4 3 3 7 5 4 4 3 5 7 15 20 15 14 15 19 20 23 23 20 18 15 13 11 9 6 5 3 1 2 4 5 5 7 8 10 12 12 13 14 17 17 16 17 18 19 15
2 3 8 8 9 5 8 9 6 4 3 14 14 13 12 9 12 16 23 22 21 19 18 15 13 11 9 7 5 3 1 2 4 3 5 7 9 11 12 12 13 15 17 17 17 18 21 21 16
4 7 7 6 6 5 7 4 7 2 8 14 18 18 10 8 14 15 20 21 22 19 18 15 13 11 9 8 6 3 1 1 2 3 5 7 8 10 13 13 14 15 17 16 16 19 21 20 17
3 4 4 8 5 5 6 2 5 7 8 15 13 14 14 11 13 17 18 22 24 20 18 16 13 11 9 8 6 4 2 1 1 2 3 4 7 9 12 13 14 15 16 16 16 18 20 22 21
2 3 3 5 6 1 4 7 3 9 14 9 12 10 12 12 14 16 21 25 25 20 19 16 14 12 10 8 6 5 3 2 2 2 2 3 6 9 11 14 14 15 16 17 18 19 22 24 23
5 4 5 3 5 2 3 4 1 4 8 11 9 10 9 7 11 17 22 26 24 20 19 17 15 13 11 9 7 5 4 4 4 4 4 4 6 9 11 13 15 14 15 15 17 17 20 25 27
6 4 3 5 4 3 5 4 4 4 7 9 9 8 8 7 9 15 23 22 22 19 18 16 15 14 12 10 8 7 5 4 5 5 6 7 8 11 12 13 14 14 14 14 16 17 18 20 25
5 5 4 2 1 4 4 4 7 6 5 7 6 6 5 7 7 18 20 19 19 20 20 19 17 15 14 13 10 8 6 4 5 6 7 8 9 11 12 14 14 14 14 14 15 16 17 19 25
9 6 3 1 2 5 5 3 2 1 3 6 8 7 9 6 6 9 16 16 16 17 19 19 18 15 14 12 8 4 2 4 5 7 8 9 9 11 13 14 14 14 14 13 13 14 15 9 17
2 6 4 5 3 5 6 5 2 2 2 1 5 5 4 10 9 8 12 13 12 11 13 17 18 16 14 12 8 6 6 6 5 4 6 7 9 11 12 13 13 13 14 14 13 11 11 10 10
3 1 4 9 5 5 2 4 5 5 6 5 6 7 8 8 5 5 7 6 6 8 9 11 12 15 14 13 10 8 6 4 5 7 8 10 10 12 11 12 12 13 13 14 13 12 10 11 10
3 4 6 4 6 4 4 5 6 3 7 8 9 7 6 8 8 7 5 4 3 4 6 7 9 14 14 11 8 7 6 6 6 8 10 11 9 9 11 11 12 12 14 14 14 13 12 12 11
6 2 8 6 4 2 1 5 4 5 7 4 4 6 7 7 6 5 5 5 3 3 5 8 11 12 11 8 6 6 6 6 7 8 9 9 10 11 12 13 13 14 14 15 16 15 15 14 14
1 4 3 3 3 5 3 3 8 3 3 4 10 9 6 6 5 5 5 5 4 5 7 8 8 8 7 7 7 6 6 7 8 8 10 12 15 15 14 14 15 15 15 16 16 17 16 16 18
3 4 5 5 4 3 2 5 5 3 5 2 7 7 6 6 5 6 6 6 5 4 5 6 6 6 7 8 7 6 5 5 6 8 10 12 15 16 16 16 16 17 17 17 17 17 18 17 19
1 4 3 7 4 4 3 4 4 5 5 8 8 7 5 5 5 4 5 5 5 6 7 7 8 8 8 6 4 3 4 5 7 9 11 14 14 15 15 17 19 18 17 17 16 16 18 18 19
3 4 4 4 3 2 4 1 3 5 2 2 4 5 3 2 4 4 6 8 7 6 5 5 6 5 5 4 3 4 5 7 9 11 12 13 13 15 17 18 17 17 17 16 16 17 17 17 18
3 2 6 3 4 4 4 4 4 3 3 5 5 6 6 6 6 5 6 7 6 5 5 5 4 4 4 4 5 6 8 10 12 13 13 15 16 16 17 17 18 18 19 17 17 16 17 18 18
1 2 4 4 4 1 4 3 3 4 4 3 4 4 3 4 5 5 7 7 7 6 5 5 4 3 4 4 6 8 11 12 12 12 14 15 16 16 16 17 18 18 18 17 18 20 19 19 20
Wind_Direction
252 270 305 37 84 65 253 253 270 134 58 322 47 96 110 53 92 167 152 153 153 149 150 148 140 131 124 118 112 104 92 81 69 56 49 45 44 40 37 28 19 16 12 5 351 339 328 322 319
254 216 69 85 120 141 251 248 202 202 138 138 84 76 56 68 79 119 123 155 150 149 150 146 139 133 127 120 113 105 90 77 70 55 40 28 24 23 14 9 0 4 360 351 338 330 332 330 318
238 166 118 146 164 183 206 250 196 138 169 140 103 46 86 91 106 148 153 154 148 147 147 144 139 133 125 119 119 110 110 81 47 30 22 19 17 10 3 3 358 352 346 341 336 330 325 320 317
170 55 31 150 191 234 185 260 39 157 108 56 111 70 47 346 144 152 145 146 142 144 145 143 138 133 129 129 125 118 88 61 43 30 18 11 7 3 360 356 351 346 340 334 329 325 322 318 315
151 88 181 181 206 237 229 245 275 292 113 106 127 125 61 26 134 139 146 145 142 144 144 142 143 142 139 138 127 107 68 52 42 24 15 8 7 8 3 6 357 351 343 335 334 331 328 324 319
131 127 187 188 182 228 245 230 308 179 90 145 88 99 105 138 132 146 148 146 148 147 146 148 149 147 142 135 123 103 71 48 37 32 23 22 18 5 4 360 360 359 8 5 358 353 348 343 337
143 127 208 158 178 207 226 161 184 187 150 121 130 95 126 156 150 150 150 151 153 152 151 151 150 146 140 130 118 101 74 55 53 50 31 17 14 2 359 6 2 358 2 5 359 353 347 344 338
149 115 172 177 184 210 209 151 331 166 109 122 130 157 172 165 151 153 149 149 146 147 151 153 150 147 139 128 113 94 85 62 45 33 27 16 10 18 1 353 355 356 357 356 352 353 348 343 345
190 62 197 201 166 177 146 137 11 46 95 37 50 128 134 153 151 147 143 144 143 146 151 156 153 148 137 126 119 95 75 58 33 19 9 7 9 2 357 354 354 358 356 352 349 347 341 337 336
151 147 211 227 260 175 214 147 152 107 184 59 84 91 132 146 148 137 138 141 151 154 156 165 162 156 151 147 142 110 68 37 15 2 358 8 4 357 354 353 360 2 359 356 350 347 342 338 338
189 193 245 272 343 312 198 184 153 131 116 196 156 147 147 145 149 147 154 159 161 159 158 166 167 163 170 169 160 132 91 348 352 360 9 22 17 12 11 12 9 6 2 358 358 359 356 349 343
180 223 197 278 47 344 259 225 118 164 180 161 157 151 151 153 159 161 161 169 165 168 171 177 182 179 178 175 166 168 246 351 352 9 15 26 24 21 19 15 11 7 3 1 4 0 356 352 345
177 212 244 275 297 276 269 212 160 187 188 128 146 147 153 152 155 166 170 178 173 174 177 183 186 186 183 185 190 185 232 350 358 18 23 25 26 22 19 14 8 5 3 3 3 359 355 353 348
316 237 254 305 289 252 221 237 137 133 133 127 153 169 163 155 165 171 177 181 183 186 186 188 190 189 185 194 194 196 230 317 355 24 23 22 24 19 15 10 7 5 4 2 359 358 357 357 349
251 230 293 279 276 260 161 167 188 143 144 138 156 166 182 176 183 189 188 191 190 193 192 195 197 197 195 200 201 201 225 269 349 1 2 16 13 10 8 5 5 2 1 357 355 354 355 355 353
147 121 123 267 219 197 140 204 208 159 142 155 149 169 181 187 202 200 199 202 195 194 198 199 203 206 205 205 211 214 231 265 278 301 328 348 360 352 357 359 358 356 355 355 352 352 352 354 355
175 177 183 241 182 201 114 159 182 180 164 158 173 165 183 168 210 208 205 203 196 203 199 202 207 213 213 210 216 227 240 268 267 281 301 315 332 335 343 349 351 349 350 351 351 351 353 353 353
159 193 172 194 198 65 89 114 145 187 161 173 165 165 179 178 207 205 204 202 197 200 203 207 208 213 214 214 219 229 244 261 267 282 296 300 317 328 334 339 342 340 341 347 350 349 352 358 354
167 151 134 262 144 93 116 135 176 190 155 169 177 147 170 192 202 197 184 186 190 199 203 208 210 210 212 210 217 234 253 272 275 291 296 297 314 322 325 330 334 335 336 342 348 342 346 360 4
231 152 144 349 142 91 126 90 13 154 227 190 170 181 196 170 165 180 181 185 192 200 210 214 215 213 214 215 221 235 247 275 290 298 304 307 311 320 323 325 330 332 331 336 342 343 341 344 12
56 146 179 148 114 42 97 7 220 206 62 120 231 204 199 188 177 181 181 185 194 201 210 219 219 215 212 210 222 225 252 276 296 316 321 320 313 318 319 318 321 327 331 330 328 335 328 329 0
78 87 146 140 98 150 93 227 243 228 187 196 184 191 199 174 159 162 172 185 218 224 219 215 213 210 202 202 219 239 252 277 296 301 307 312 313 314 316 317 315 313 320 325 323 318 309 306 320
95 353 139 94 88 97 341 64 256 162 223 207 211 197 184 174 162 167 159 149 154 171 182 182 182 189 194 205 227 242 258 273 282 294 303 309 318 325 326 321 318 311 303 306 313 314 300 291 289
6 58 46 47 84 49 278 115 270 199 203 216 183 205 186 171 159 140 130 138 138 162 164 166 173 174 189 211 233 244 261 269 281 294 305 316 319 326 329 325 322 319 316 312 305 302 298 291 283
128 58 49 22 20 201 317 58 246 281 319 240 191 181 163 149 145 151 144 139 146 169 174 176 183 187 199 214 232 241 255 271 287 306 316 322 324 326 328 324 319 316 312 311 307 301 294 290 281
150 159 149 168 160 229 1 226 262 336 332 43 98 126 142 145 162 175 176 178 186 186 179 177 182 193 206 217 228 244 265 284 303 312 315 317 319 321 324 320 317 315 310 308 305 301 297 292 284
234 58 196 102 35 63 223 281 340 346 25 59 92 106 137 159 164 174 176 187 193 195 196 194 198 204 207 226 229 244 268 293 306 311 315 317 320 321 319 315 312 312 310 310 308 303 299 296 290
108 172 58 22 130 213 282 257 229 334 329 104 125 147 171 167 154 150 169 186 194 196 195 200 213 216 213 214 241 269 284 296 303 309 311 315 319 320 316 315 313 314 315 313 310 305 300 296 292
10 51 57 101 147 176 162 278 234 269 282 185 197 204 202 193 188 182 182 182 184 197 212 209 205 212 226 251 287 308 320 322 322 321 325 327 324 322 317 317 317 319 317 318 313 308 305 299 295
1 95 135 137 213 164 136 279 297 310 24 126 201 220 216 185 189 185 191 189 197 209 216 222 230 256 278 298 310 318 324 325 326 329 327 324 320 316 315 315 316 318 319 321 319 316 313 306 302